Weather History for Westerly, RI

Change the Weather History Date:

Sunday, November 27, 2011

  Actual Average (KGON) Record (KGON)
Temperature  
Mean Temperature 44 °F -  
Max Temperature 59 °F 49 °F 62 °F (1966)
Min Temperature 30 °F 32 °F 13 °F (1978)
Degree Days  
Heating Degree Days 20    
Moisture  
Dew Point 41 °F    
Average Humidity 90    
Maximum Humidity 100    
Minimum Humidity 80    
Precipitation  
Precipitation 0.00 in - - ()
Sea Level Pressure  
Sea Level Pressure 30.19 in    
Wind  
Wind Speed 3 mph (SSW)    
Max Wind Speed 14 mph    
Max Gust Speed 20 mph    
Visibility 7 miles    
Events Fog    
Averages and records for this station are not official NWS values.
T = Trace of Precipitation, MM = Missing Value Source: NWS Daily Summary

Daily Weather History Graph

Daily Weather History Graph

Search for Another Location

Airport:

Trip Planner

Search our weather history database for the weather conditions in past years. The results will help you decide how hot, cold, wet, or windy it might be!

Date:

Astronomy

Nov. 27, 2011 Rise Set
Actual Time 6:49 AM EST 4:20 PM EST
Civil Twilight 6:18 AM EST 4:50 PM EST
Nautical Twilight 5:44 AM EST 5:24 PM EST
Astronomical Twilight 5:11 AM EST 5:57 PM EST
Moon 9:11 AM EST (11/27) 6:55 PM EST (11/27)
Length of Visible Light 10h 32m
Length of Day
9h 31m
Waxing Crescent, 8% of the Moon is Illuminated
Nov 27
Waxing Crescent
Dec 2
First Quarter
Dec 10
Full
Dec 17
Last Quarter
Dec 24
New

Hourly Weather History & Observations

Time (EST) Temp. Windchill Dew Point Humidity Pressure Visibility Wind Dir Wind Speed Gust Speed Precip Events Conditions
12:53 AM 35.1 °F - 33.1 °F 92% 30.20 in 10.0 mi Calm Calm - N/A   Clear
1:53 AM 35.1 °F - 32.0 °F 89% 30.21 in 9.0 mi Calm Calm - N/A   Clear
2:53 AM 34.0 °F - 32.0 °F 92% 30.21 in 8.0 mi Calm Calm - N/A   Clear
3:53 AM 34.0 °F - 30.9 °F 89% 30.19 in 7.0 mi Calm Calm - N/A   Clear
4:53 AM 32.0 °F - 30.0 °F 92% 30.20 in 8.0 mi Calm Calm - N/A   Clear
5:53 AM 30.9 °F - 28.9 °F 92% 30.20 in 8.0 mi Calm Calm - N/A   Clear
6:28 AM 30.2 °F - 28.4 °F 93% 30.21 in 7.0 mi Calm Calm - N/A   Scattered Clouds
6:36 AM 30.2 °F - 30.2 °F 100% 30.20 in 7.0 mi Calm Calm - N/A   Mostly Cloudy
7:00 AM 32.0 °F - 30.2 °F 93% 30.21 in 0.2 mi Calm Calm - N/A Fog Fog
7:53 AM 34.0 °F - 33.1 °F 96% 30.21 in 0.2 mi Calm Calm - N/A Fog Fog
8:12 AM 35.6 °F - 33.8 °F 93% 30.21 in 0.2 mi Calm Calm - N/A Fog Fog
8:21 AM 35.6 °F - 35.6 °F 100% 30.21 in 0.2 mi Calm Calm - N/A Fog Fog
8:29 AM 35.6 °F 32.8 °F 35.6 °F 100% 30.21 in 0.2 mi North 3.5 mph - N/A Fog Fog
8:41 AM 37.4 °F - 37.4 °F 100% 30.21 in 0.2 mi Calm Calm - N/A Fog Fog
8:53 AM 39.0 °F - 37.9 °F 96% 30.22 in 0.5 mi Calm Calm - N/A Fog Fog
9:01 AM 39.2 °F - 39.2 °F 100% 30.22 in 2.0 mi Calm Calm - N/A   Mostly Cloudy
9:10 AM 42.8 °F - 39.2 °F 87% 30.21 in 4.0 mi Calm Calm - N/A   Mostly Cloudy
10:19 AM 53.6 °F - 48.2 °F 82% 30.22 in 10.0 mi SSW 8.1 mph - N/A   Scattered Clouds
10:53 AM 55.9 °F - 50.0 °F 80% 30.21 in 10.0 mi South 6.9 mph - N/A   Partly Cloudy
1:53 PM 59.0 °F - 53.1 °F 81% 30.16 in 10.0 mi South 12.7 mph - N/A   Clear
2:53 PM 57.9 °F - 52.0 °F 81% 30.17 in 10.0 mi SSW 11.5 mph - N/A   Clear
3:53 PM 57.0 °F - 52.0 °F 83% 30.16 in 10.0 mi SSW 9.2 mph - N/A   Clear
4:53 PM 55.9 °F - 52.0 °F 87% 30.17 in 10.0 mi SSW 6.9 mph - N/A   Clear
5:53 PM 55.0 °F - 52.0 °F 89% 30.16 in 10.0 mi SSW 6.9 mph - N/A   Clear
6:53 PM 55.9 °F - 52.0 °F 87% 30.17 in 10.0 mi SSW 9.2 mph - N/A   Clear
7:53 PM 55.9 °F - 52.0 °F 87% 30.17 in 10.0 mi SSW 10.4 mph - N/A   Clear
8:53 PM 55.9 °F - 52.0 °F 87% 30.17 in 10.0 mi SW 12.7 mph 19.6 mph N/A   Clear
9:53 PM 55.9 °F - 52.0 °F 87% 30.16 in 10.0 mi SW 11.5 mph - N/A   Clear
10:53 PM 57.0 °F - 51.1 °F 81% 30.16 in 10.0 mi SW 13.8 mph 19.6 mph N/A   Clear
11:53 PM 55.9 °F - 51.1 °F 84% 30.16 in 10.0 mi SSW 10.4 mph 17.3 mph N/A   Clear